When you browse on this site, cookies collect data to enhance your experience and personalize the content and advertising you see.
Visit our Privacy Policy to learn more. By continuing to use the site, you agree to this use of cookies and data.

Stündliche Wetter Doxey

Heute, 7 August, Freitag

Zeit Temperatur Niederschläge Wind Luftdruck Luftfeuchtigkeit
00:00 +15°C° 0 mm 1 m/S 595 mmHg 95%
01:00 +15°C° 0 mm 1 m/S 595 mmHg 95%
02:00 +15°C° 0 mm 1 m/S 595 mmHg 94%
03:00 +16°C° 0 mm 1 m/S 595 mmHg 92%
04:00 +16°C° 0 mm 1 m/S 595 mmHg 91%
05:00 +16°C° 0 mm 1 m/S 596 mmHg 89%
06:00 +18°C° 0 mm 1 m/S 596 mmHg 83%
07:00 +19°C° 0 mm 1 m/S 596 mmHg 78%
08:00 +19°C° 0 mm 1 m/S 597 mmHg 72%
09:00 +19°C° 0 mm 2 m/S 597 mmHg 68%
10:00 +20°C° 0 mm 2 m/S 597 mmHg 65%
11:00 +22°C° 0 mm 3 m/S 598 mmHg 61%
12:00 +22°C° 0.4 mm 3 m/S 597 mmHg 60%
13:00 +23°C° 0.4 mm 4 m/S 597 mmHg 59%
14:00 +25°C° 0.4 mm 5 m/S 597 mmHg 58%
15:00 +23°C° 0.7 mm 5 m/S 596 mmHg 62%
16:00 +22°C° 0.7 mm 5 m/S 596 mmHg 66%
17:00 +21°C° 0.7 mm 5 m/S 596 mmHg 70%
18:00 +19°C° 0 mm 4 m/S 596 mmHg 77%
19:00 +17°C° 0 mm 3 m/S 596 mmHg 84%
20:00 +16°C° 0 mm 2 m/S 596 mmHg 91%
21:00 +15°C° 0 mm 2 m/S 596 mmHg 93%
22:00 +15°C° 0 mm 1 m/S 596 mmHg 94%
23:00 +14°C° 0 mm 1 m/S 596 mmHg 96%

Morgen, 8 August, Samstag

Zeit Temperatur Niederschläge Wind Luftdruck Luftfeuchtigkeit
00:00 +14°C° 0 mm 1 m/S 595 mmHg 96%
01:00 +14°C° 0 mm 1 m/S 595 mmHg 96%
02:00 +14°C° 0 mm 1 m/S 595 mmHg 96%
03:00 +14°C° 0 mm 1 m/S 595 mmHg 96%
04:00 +12°C° 0 mm 0 m/S 595 mmHg 95%
05:00 +12°C° 0 mm 0 m/S 595 mmHg 95%
06:00 +14°C° 0 mm 1 m/S 596 mmHg 89%
07:00 +16°C° 0 mm 1 m/S 596 mmHg 83%
08:00 +18°C° 0 mm 1 m/S 597 mmHg 78%
09:00 +18°C° 0 mm 2 m/S 597 mmHg 73%
10:00 +20°C° 0 mm 2 m/S 598 mmHg 68%
11:00 +21°C° 0 mm 2 m/S 598 mmHg 63%
12:00 +21°C° 0.6 mm 3 m/S 597 mmHg 66%
13:00 +21°C° 0.6 mm 4 m/S 597 mmHg 68%
14:00 +21°C° 0.6 mm 5 m/S 597 mmHg 70%
15:00 +21°C° 0.8 mm 5 m/S 596 mmHg 73%
16:00 +20°C° 0.8 mm 5 m/S 596 mmHg 75%
17:00 +19°C° 0.8 mm 5 m/S 596 mmHg 78%
18:00 +18°C° 0.1 mm 4 m/S 596 mmHg 82%
19:00 +17°C° 0.1 mm 3 m/S 596 mmHg 86%
20:00 +16°C° 0.1 mm 2 m/S 596 mmHg 90%
21:00 +16°C° 0 mm 2 m/S 597 mmHg 91%
22:00 +16°C° 0 mm 1 m/S 597 mmHg 92%
23:00 +15°C° 0 mm 1 m/S 597 mmHg 93%

übermorgen, 9 August, Sonntag

Zeit Temperatur Niederschläge Wind Luftdruck Luftfeuchtigkeit
00:00 +15°C° 0 mm 1 m/S 596 mmHg 93%
01:00 +15°C° 0 mm 1 m/S 596 mmHg 93%
02:00 +16°C° 0 mm 2 m/S 596 mmHg 93%
03:00 +15°C° 0 mm 2 m/S 596 mmHg 93%
04:00 +15°C° 0 mm 2 m/S 596 mmHg 93%
05:00 +15°C° 0 mm 2 m/S 596 mmHg 93%
06:00 +16°C° 0 mm 2 m/S 596 mmHg 90%
07:00 +16°C° 0 mm 2 m/S 597 mmHg 87%
08:00 +17°C° 0 mm 2 m/S 598 mmHg 83%
09:00 +18°C° 0.1 mm 2 m/S 598 mmHg 79%
10:00 +19°C° 0.1 mm 2 m/S 598 mmHg 75%
11:00 +20°C° 0.1 mm 2 m/S 598 mmHg 71%
12:00 +20°C° 0.3 mm 3 m/S 598 mmHg 70%
13:00 +21°C° 0.3 mm 3 m/S 598 mmHg 69%
14:00 +21°C° 0.3 mm 4 m/S 597 mmHg 68%
15:00 +20°C° 0.6 mm 4 m/S 597 mmHg 72%
16:00 +20°C° 0.6 mm 4 m/S 596 mmHg 76%
17:00 +19°C° 0.6 mm 4 m/S 596 mmHg 80%
18:00 +18°C° 1.7 mm 3 m/S 596 mmHg 85%
19:00 +17°C° 1.7 mm 3 m/S 596 mmHg 90%
20:00 +16°C° 1.7 mm 2 m/S 596 mmHg 95%
21:00 +16°C° 2.3 mm 2 m/S 597 mmHg 95%
22:00 +16°C° 2.3 mm 1 m/S 597 mmHg 96%
23:00 +16°C° 2.3 mm 1 m/S 597 mmHg 96%

10 August, Montag

Zeit Temperatur Niederschläge Wind Luftdruck Luftfeuchtigkeit
00:00 +16°C° 0.8 mm 1 m/S 596 mmHg 96%
01:00 +16°C° 0.8 mm 1 m/S 596 mmHg 95%
02:00 +16°C° 0.8 mm 1 m/S 596 mmHg 95%
03:00 +16°C° 0.2 mm 1 m/S 596 mmHg 95%
04:00 +15°C° 0.2 mm 1 m/S 596 mmHg 95%
05:00 +15°C° 0.2 mm 1 m/S 596 mmHg 95%
06:00 +16°C° 0 mm 1 m/S 596 mmHg 92%
07:00 +16°C° 0 mm 1 m/S 597 mmHg 89%
08:00 +18°C° 0 mm 1 m/S 597 mmHg 86%
09:00 +19°C° 0 mm 1 m/S 597 mmHg 80%
10:00 +20°C° 0 mm 2 m/S 598 mmHg 75%
11:00 +21°C° 0 mm 2 m/S 598 mmHg 69%
12:00 +21°C° 0.6 mm 3 m/S 597 mmHg 69%
13:00 +21°C° 0.6 mm 3 m/S 597 mmHg 69%
14:00 +22°C° 0.6 mm 4 m/S 596 mmHg 69%
15:00 +21°C° 1 mm 4 m/S 596 mmHg 74%
16:00 +20°C° 1 mm 4 m/S 595 mmHg 78%
17:00 +19°C° 1 mm 4 m/S 595 mmHg 83%
18:00 +18°C° 0.9 mm 3 m/S 595 mmHg 87%
19:00 +18°C° 0.9 mm 2 m/S 595 mmHg 90%
20:00 +18°C° 0.9 mm 1 m/S 596 mmHg 93%
21:00 +18°C° 1 mm 1 m/S 596 mmHg 93%
22:00 +18°C° 1 mm 1 m/S 596 mmHg 93%
23:00 +16°C° 1 mm 1 m/S 596 mmHg 93%

11 August, Dienstag

Zeit Temperatur Niederschläge Wind Luftdruck Luftfeuchtigkeit
00:00 +16°C° 0.3 mm 1 m/S 596 mmHg 94%
01:00 +16°C° 0.3 mm 1 m/S 595 mmHg 94%
02:00 +16°C° 0.3 mm 1 m/S 595 mmHg 95%
03:00 +16°C° 0 mm 1 m/S 595 mmHg 94%
04:00 +16°C° 0 mm 1 m/S 595 mmHg 94%
05:00 +16°C° 0 mm 1 m/S 595 mmHg 94%
06:00 +16°C° 0 mm 1 m/S 595 mmHg 88%
07:00 +18°C° 0 mm 1 m/S 596 mmHg 83%
08:00 +19°C° 0 mm 1 m/S 596 mmHg 77%
09:00 +21°C° 0 mm 1 m/S 597 mmHg 70%
10:00 +21°C° 0 mm 2 m/S 597 mmHg 62%
11:00 +24°C° 0 mm 3 m/S 597 mmHg 55%
12:00 +24°C° 0.1 mm 3 m/S 597 mmHg 57%
13:00 +23°C° 0.1 mm 4 m/S 597 mmHg 58%
14:00 +23°C° 0.1 mm 5 m/S 596 mmHg 60%
15:00 +22°C° 0.8 mm 5 m/S 595 mmHg 67%
16:00 +21°C° 0.8 mm 5 m/S 595 mmHg 73%
17:00 +19°C° 0.8 mm 5 m/S 594 mmHg 80%
18:00 +18°C° 0.3 mm 4 m/S 594 mmHg 84%
19:00 +17°C° 0.3 mm 3 m/S 595 mmHg 88%
20:00 +16°C° 0.3 mm 2 m/S 595 mmHg 93%
21:00 +16°C° 0.3 mm 2 m/S 595 mmHg 93%
22:00 +16°C° 0.3 mm 1 m/S 595 mmHg 92%
23:00 +16°C° 0.3 mm 1 m/S 595 mmHg 92%

12 August, Mittwoch

Zeit Temperatur Niederschläge Wind Luftdruck Luftfeuchtigkeit
00:00 +16°C° 0.1 mm 1 m/S 595 mmHg 93%
01:00 +16°C° 0.1 mm 1 m/S 595 mmHg 94%
02:00 +16°C° 0.1 mm 1 m/S 594 mmHg 95%
03:00 +15°C° 0.1 mm 1 m/S 594 mmHg 95%
04:00 +15°C° 0.1 mm 1 m/S 594 mmHg 95%
05:00 +15°C° 0.1 mm 1 m/S 594 mmHg 95%
06:00 +16°C° 0 mm 1 m/S 595 mmHg 90%
07:00 +18°C° 0 mm 1 m/S 596 mmHg 85%
08:00 +19°C° 0 mm 1 m/S 596 mmHg 80%
09:00 +20°C° 0.1 mm 1 m/S 597 mmHg 74%
10:00 +21°C° 0.1 mm 2 m/S 597 mmHg 69%
11:00 +23°C° 0.1 mm 2 m/S 597 mmHg 63%
12:00 +22°C° 0.8 mm 3 m/S 597 mmHg 64%
13:00 +22°C° 0.8 mm 4 m/S 596 mmHg 64%
14:00 +23°C° 0.8 mm 4 m/S 596 mmHg 65%
15:00 +21°C° 1.2 mm 4 m/S 595 mmHg 71%
16:00 +20°C° 1.2 mm 4 m/S 595 mmHg 77%
17:00 +19°C° 1.2 mm 4 m/S 594 mmHg 83%
18:00 +18°C° 1.2 mm 3 m/S 595 mmHg 85%
19:00 +18°C° 1.2 mm 3 m/S 595 mmHg 88%
20:00 +17°C° 1.2 mm 2 m/S 595 mmHg 91%
21:00 +18°C° 0.4 mm 1 m/S 595 mmHg 91%
22:00 +16°C° 0.4 mm 1 m/S 596 mmHg 92%
23:00 +16°C° 0.4 mm 1 m/S 596 mmHg 93%
Mehr zeigen